CW2274 Weather Reports


time (UTC)temp
C
wind
direction
speed
KPH
gust
KPH
rain 1hr
cm
rain 24hr
cm
rain mn
cm
humidity
%
barometer
mb
20260509123031 18 246 1.6 3.2 0.00 0.00 0.00 35 1014.0
20260509122527 18 247 1.6 3.2 0.00 0.00 0.00 36 1014.0
20260509122027 18 247 0.0 4.8 0.00 0.00 0.00 36 1013.9
20260509121523 18 247 1.6 4.8 0.00 0.00 0.00 35 1013.9
20260509121019 18 247 1.6 6.4 0.00 0.00 0.00 36 1013.9
20260509120515 18 248 4.8 6.4 0.00 0.00 0.00 36 1013.8
20260509120043 18 248 1.6 4.8 0.00 0.00 0.00 36 1013.8
20260509115524 18 248 1.6 4.8 0.00 0.00 0.00 36 1013.8
20260509115020 18 248 0.0 4.8 0.00 0.00 0.00 36 1013.7
20260509114520 18 248 3.2 4.8 0.00 0.00 0.00 36 1013.7
20260509114016 18 249 1.6 3.2 0.00 0.00 0.00 36 1013.8
20260509113512 18 249 0.0 0.0 0.00 0.00 0.00 37 1013.7
20260509113028 17 249 0.0 0.0 0.00 0.00 0.00 37 1013.7
20260509112523 17 249 0.0 0.0 0.00 0.00 0.00 36 1013.7
20260509112019 18 249 0.0 0.0 0.00 0.00 0.00 36 1013.5
20260509111515 18 249 0.0 0.0 0.00 0.00 0.00 36 1013.6
20260509111030 17 249 0.0 0.0 0.00 0.00 0.00 37 1013.5
20260509110527 18 249 0.0 1.6 0.00 0.00 0.00 36 1013.5
20260509110034 18 249 0.0 1.6 0.00 0.00 0.00 36 1013.4
20260509105516 18 249 0.0 1.6 0.00 0.00 0.00 34 1013.4
20260509105012 18 249 0.0 3.2 0.00 0.00 0.00 34 1013.4
20260509104527 18 249 0.0 1.6 0.00 0.00 0.00 35 1013.5
20260509104023 17 249 0.0 1.6 0.00 0.00 0.00 37 1013.4
20260509103519 18 249 0.0 0.0 0.00 0.00 0.00 36 1013.4
20260509103020 18 249 0.0 1.6 0.00 0.00 0.00 34 1013.3
20260509102515 18 249 0.0 3.2 0.00 0.00 0.00 34 1013.3
20260509102031 19 249 1.6 3.2 0.00 0.00 0.00 33 1013.4
20260509101527 19 249 1.6 3.2 0.00 0.00 0.00 33 1013.4
20260509101023 18 249 1.6 3.2 0.00 0.00 0.00 33 1013.4
20260509100519 18 249 1.6 4.8 0.00 0.00 0.00 33 1013.4
20260509100026 20 249 1.6 4.8 0.00 0.00 0.00 32 1013.4
20260509095511 20 249 0.0 9.7 0.00 0.00 0.00 31 1013.3
20260509095027 21 249 1.6 9.7 0.00 0.00 0.00 29 1013.4
20260509094523 21 266 4.8 9.7 0.00 0.00 0.00 29 1013.3
20260509094018 20 275 1.6 3.2 0.00 0.00 0.00 31 1013.3
20260509093513 21 275 1.6 3.2 0.00 0.00 0.00 29 1013.3
20260509093029 21 275 1.6 3.2 0.00 0.00 0.00 29 1013.3
20260509092525 21 275 1.6 4.8 0.00 0.00 0.00 28 1013.3
20260509092025 22 275 1.6 4.8 0.00 0.00 0.00 27 1013.3
20260509091522 22 275 3.2 4.8 0.00 0.00 0.00 27 1013.3
20260509091017 22 275 1.6 3.2 0.00 0.00 0.00 27 1013.4
20260509090513 22 275 1.6 6.4 0.00 0.00 0.00 27 1013.5
20260509090041 22 275 1.6 6.4 0.00 0.00 0.00 27 1013.4
20260509085523 22 277 3.2 6.4 0.00 0.00 0.00 28 1013.5
20260509085019 21 277 3.2 4.8 0.00 0.00 0.00 30 1013.5
20260509084519 21 277 3.2 4.8 0.00 0.00 0.00 30 1013.4
20260509084014 21 277 3.2 4.8 0.00 0.00 0.00 29 1013.5
20260509083530 22 277 3.2 4.8 0.00 0.00 0.00 26 1013.3
20260509083026 22 277 1.6 4.8 0.00 0.00 0.00 27 1013.5
20260509082522 21 277 1.6 4.8 0.00 0.00 0.00 29 1013.5
20260509082019 21 277 3.2 4.8 0.00 0.00 0.00 29 1013.5
20260509081515 21 277 3.2 3.2 0.00 0.00 0.00 29 1013.4
20260509081014 21 277 1.6 3.2 0.00 0.00 0.00 28 1013.4
20260509080530 22 277 1.6 3.2 0.00 0.00 0.00 27 1013.4
20260509080037 22 277 0.0 1.6 0.00 0.00 0.00 26 1013.4
20260509075519 22 277 0.0 4.8 0.00 0.00 0.00 26 1013.4
20260509075015 22 277 1.6 4.8 0.00 0.00 0.00 26 1013.5
20260509074531 22 277 1.6 3.2 0.00 0.00 0.00 26 1013.4
20260509074027 22 277 0.0 3.2 0.00 0.00 0.00 27 1013.4
20260509073522 22 277 1.6 4.8 0.00 0.00 0.00 26 1013.4
20260509073022 22 277 1.6 4.8 0.00 0.00 0.00 25 1013.4
20260509072518 23 277 0.0 3.2 0.00 0.00 0.00 23 1013.5
20260509072014 23 277 1.6 3.2 0.00 0.00 0.00 23 1013.4
20260509071530 23 277 0.0 1.6 0.00 0.00 0.00 23 1013.5
20260509071026 23 277 0.0 3.2 0.00 0.00 0.00 23 1013.6
20260509070522 24 277 1.6 3.2 0.00 0.00 0.00 22 1013.4
20260509070030 24 277 1.6 3.2 0.00 0.00 0.00 21 1013.5
20260509065515 24 277 1.6 3.2 0.00 0.00 0.00 20 1013.5
20260509065030 25 277 3.2 3.2 0.00 0.00 0.00 19 1013.4
20260509064526 26 277 1.6 6.4 0.00 0.00 0.00 18 1013.4
20260509064022 25 277 3.2 6.4 0.00 0.00 0.00 18 1013.5
20260509063518 25 270 3.2 6.4 0.00 0.00 0.00 20 1013.6
20260509063014 25 270 3.2 6.4 0.00 0.00 0.00 20 1013.4
20260509062529 24 271 3.2 6.4 0.00 0.00 0.00 20 1013.5
20260509062029 23 306 4.8 6.4 0.00 0.00 0.00 23 1013.4
20260509061524 23 307 3.2 4.8 0.00 0.00 0.00 23 1013.4
20260509061020 24 307 3.2 4.8 0.00 0.00 0.00 21 1013.3
20260509060516 24 307 3.2 4.8 0.00 0.00 0.00 21 1013.3
20260509060043 24 307 3.2 4.8 0.00 0.00 0.00 21 1013.4
20260509055524 24 307 3.2 4.8 0.00 0.00 0.00 21 1013.3
20260509055020 24 307 3.2 4.8 0.00 0.00 0.00 21 1013.3
20260509054520 24 307 3.2 6.4 0.00 0.00 0.00 20 1013.2
20260509054016 24 307 3.2 6.4 0.00 0.00 0.00 21 1013.2
20260509053531 24 307 4.8 4.8 0.00 0.00 0.00 20 1013.3
20260509053027 25 308 3.2 6.4 0.00 0.00 0.00 20 1013.1
20260509052523 25 308 3.2 6.4 0.00 0.00 0.00 21 1013.2
20260509052019 25 308 4.8 6.4 0.00 0.00 0.00 19 1013.2
20260509051515 24 309 3.2 6.4 0.00 0.00 0.00 21 1013.3
20260509051015 24 310 3.2 4.8 0.00 0.00 0.00 22 1013.2
20260509050530 24 310 3.2 4.8 0.00 0.00 0.00 21 1013.2
20260509050039 24 310 3.2 4.8 0.00 0.00 0.00 21 1013.1
20260509045520 25 310 3.2 4.8 0.00 0.00 0.00 21 1013.2
20260509045016 25 310 3.2 4.8 0.00 0.00 0.00 21 1013.1
20260509044532 25 310 3.2 4.8 0.00 0.00 0.00 20 1012.9
20260509044028 26 310 1.6 4.8 0.00 0.00 0.00 19 1013.0
20260509043524 26 310 1.6 4.8 0.00 0.00 0.00 18 1012.8
20260509043023 26 310 1.6 4.8 0.00 0.00 0.00 17 1012.9
20260509042519 26 310 1.6 4.8 0.00 0.00 0.00 18 1012.8
20260509042016 26 310 3.2 4.8 0.00 0.00 0.00 18 1012.8
20260509041532 26 310 3.2 4.8 0.00 0.00 0.00 18 1012.7
20260509041027 26 310 3.2 4.8 0.00 0.00 0.00 18 1012.6
20260509040523 26 310 3.2 4.8 0.00 0.00 0.00 18 1012.5
20260509040032 26 310 3.2 4.8 0.00 0.00 0.00 17 1012.5
20260509035517 26 310 3.2 4.8 0.00 0.00 0.00 17 1012.5
20260509035033 26 310 3.2 4.8 0.00 0.00 0.00 17 1012.4
20260509034529 26 310 3.2 4.8 0.00 0.00 0.00 17 1012.4
20260509034024 26 310 3.2 4.8 0.00 0.00 0.00 16 1012.3
20260509033520 27 310 3.2 4.8 0.00 0.00 0.00 17 1012.4
20260509033016 27 310 3.2 4.8 0.00 0.00 0.00 16 1012.4
20260509032531 27 310 3.2 4.8 0.00 0.00 0.00 16 1012.2
20260509032031 27 310 3.2 6.4 0.00 0.00 0.00 16 1012.2
20260509031528 27 310 3.2 6.4 0.00 0.00 0.00 16 1012.2
20260509031024 27 310 3.2 4.8 0.00 0.00 0.00 16 1012.2
20260509030520 27 310 3.2 4.8 0.00 0.00 0.00 16 1012.1
20260509030047 27 310 3.2 4.8 0.00 0.00 0.00 16 1012.0
20260509025528 28 310 1.6 4.8 0.00 0.00 0.00 15 1011.9
20260509025024 28 310 1.6 4.8 0.00 0.00 0.00 14 1011.9
20260509024524 28 310 3.2 4.8 0.00 0.00 0.00 14 1011.8
20260509024020 29 310 3.2 6.4 0.00 0.00 0.00 13 1011.8
20260509023516 30 310 3.2 6.4 0.00 0.00 0.00 13 1011.7
20260509023031 30 310 3.2 6.4 0.00 0.00 0.00 13 1011.7
20260509022527 30 311 1.6 6.4 0.00 0.00 0.00 13 1011.6
20260509022023 30 311 1.6 3.2 0.00 0.00 0.00 12 1011.4
20260509021519 30 312 0.0 4.8 0.00 0.00 0.00 13 1011.4
20260509021019 31 312 1.6 6.4 0.00 0.00 0.00 12 1011.4
20260509020515 31 302 3.2 6.4 0.00 0.00 0.00 12 1011.4
20260509020042 31 290 3.2 6.4 0.00 0.00 0.00 12 1011.3
20260509015523 31 360 3.2 6.4 0.00 0.00 0.00 12 1011.3
20260509015019 31 321 1.6 8.0 0.00 0.00 0.00 11 1011.3
20260509014515 31 342 3.2 11.3 0.00 0.00 0.00 11 1011.2
20260509014031 32 304 4.8 11.3 0.00 0.00 0.00 11 1011.1
20260509013526 32 342 4.8 16.1 0.00 0.00 0.00 11 1011.1
20260509013026 32 317 4.8 16.1 0.00 0.00 0.00 11 1011.0
20260509012522 32 316 4.8 8.0 0.00 0.00 0.00 11 1011.0
20260509012019 32 306 3.2 12.9 0.00 0.00 0.00 11 1011.0
20260509011515 32 323 4.8 12.9 0.00 0.00 0.00 11 1011.0
20260509011031 32 292 1.6 12.9 0.00 0.00 0.00 10 1011.0
20260509010526 32 336 3.2 12.9 0.00 0.00 0.00 10 1011.1
20260509010034 33 310 4.8 11.3 0.00 0.00 0.00 10 1011.2
20260509005519 32 355 4.8 11.3 0.00 0.00 0.00 10 1011.1
20260509005016 33 344 4.8 12.9 0.00 0.00 0.00 10 1011.1
20260509004533 33 324 3.2 12.9 0.00 0.00 0.00 10 1011.1
20260509004029 33 322 3.2 16.1 0.00 0.00 0.00 10 1011.1
20260509003524 33 315 8.0 16.1 0.00 0.00 0.00 10 1011.1
20260509003019 33 306 8.0 14.5 0.00 0.00 0.00 10 1011.1
20260509002515 33 311 6.4 19.3 0.00 0.00 0.00 10 1011.0
20260509002015 33 344 4.8 14.5 0.00 0.00 0.00 10 1011.1
20260509001531 33 339 3.2 14.5 0.00 0.00 0.00 10 1011.1
20260509001026 33 292 4.8 19.3 0.00 0.00 0.00 10 1011.2
20260509000522 33 11 6.4 16.1 0.00 0.00 0.00 10 1011.3
20260509000029 33 294 4.8 12.9 0.00 0.00 0.00 10 1011.2
20260508235530 33 343 4.8 16.1 0.00 0.00 0.00 10 1011.4
20260508235026 33 327 6.4 16.1 0.00 0.00 0.00 10 1011.4
20260508234525 33 280 4.8 16.1 0.00 0.00 0.00 9 1011.4
20260508234021 34 356 6.4 17.7 0.00 0.00 0.00 9 1011.4
20260508233517 34 291 4.8 17.7 0.00 0.00 0.00 9 1011.4
20260508233013 33 20 6.4 14.5 0.00 0.00 0.00 10 1011.4
20260508232529 34 339 4.8 16.1 0.00 0.00 0.00 9 1011.5
20260508232023 35 307 4.8 20.9 0.00 0.00 0.00 10 1011.5
20260508231519 34 290 4.8 20.9 0.00 0.00 0.00 9 1011.6
20260508231019 34 285 9.7 19.3 0.00 0.00 0.00 10 1011.6
20260508230516 34 354 4.8 14.5 0.00 0.00 0.00 11 1011.5
20260508230044 35 360 3.2 24.1 0.00 0.00 0.00 10 1011.7
20260508225525 35 312 6.4 24.1 0.00 0.00 0.00 10 1011.8
20260508225022 35 271 6.4 17.7 0.00 0.00 0.00 9 1011.8
20260508224518 35 263 6.4 16.1 0.00 0.00 0.00 9 1011.8
20260508224014 35 335 4.8 14.5 0.00 0.00 0.00 10 1011.9
20260508223514 35 299 8.0 16.1 0.00 0.00 0.00 10 1012.0
20260508223029 35 327 3.2 22.5 0.00 0.00 0.00 10 1012.0
20260508222525 35 279 9.7 22.5 0.00 0.00 0.00 10 1011.9
20260508222020 35 265 11.3 17.7 0.00 0.00 0.00 9 1012.0
20260508221516 34 286 6.4 25.7 0.00 0.00 0.00 11 1012.2
20260508221031 35 290 6.4 25.7 0.00 0.00 0.00 10 1012.2
20260508220526 35 289 4.8 12.9 0.00 0.00 0.00 11 1012.3
20260508220032 34 321 4.8 19.3 0.00 0.00 0.00 11 1012.4
20260508215516 35 298 9.7 20.9 0.00 0.00 0.00 11 1012.5
20260508215032 35 289 9.7 20.9 0.00 0.00 0.00 10 1012.5
20260508214527 35 302 9.7 20.9 0.00 0.00 0.00 11 1012.6
20260508214022 35 281 11.3 24.1 0.00 0.00 0.00 10 1012.9
20260508213517 35 263 8.0 19.3 0.00 0.00 0.00 11 1012.9
20260508213032 33 312 3.2 17.7 0.00 0.00 0.00 12 1012.9
20260508212528 35 325 4.8 17.7 0.00 0.00 0.00 11 1013.0
20260508212028 35 294 3.2 16.1 0.00 0.00 0.00 11 1013.0
20260508211524 34 294 4.8 16.1 0.00 0.00 0.00 12 1013.1
20260508211020 33 338 8.0 24.1 0.00 0.00 0.00 12 1013.2
20260508210516 35 4 8.0 19.3 0.00 0.00 0.00 11 1013.1
20260508205531 35 273 9.7 19.3 0.00 0.00 0.00 12 1013.2
20260508205027 35 286 6.4 14.5 0.00 0.00 0.00 10 1013.3
20260508204527 34 287 8.0 17.7 0.00 0.00 0.00 12 1013.4
20260508204022 34 288 6.4 17.7 0.00 0.00 0.00 12 1013.5
20260508203517 34 282 6.4 16.1 0.00 0.00 0.00 12 1013.5
20260508203013 33 9 4.8 16.1 0.00 0.00 0.00 13 1013.5
20260508202529 34 291 6.4 16.1 0.00 0.00 0.00 13 1013.6
20260508202026 35 357 6.4 17.7 0.00 0.00 0.00 12 1013.7
20260508201521 34 287 8.0 17.7 0.00 0.00 0.00 12 1013.6
20260508201020 33 258 6.4 17.7 0.00 0.00 0.00 13 1013.6
20260508200516 33 308 4.8 22.5 0.00 0.00 0.00 13 1013.9
20260508200044 33 354 8.0 22.5 0.00 0.00 0.00 12 1013.9
20260508195526 33 298 8.0 17.7 0.00 0.00 0.00 12 1014.1
20260508195022 33 240 8.0 17.7 0.00 0.00 0.00 12 1014.0
20260508194518 33 288 4.8 19.3 0.00 0.00 0.00 13 1014.0
20260508194014 34 277 8.0 17.7 0.00 0.00 0.00 13 1014.2
20260508193513 33 360 3.2 16.1 0.00 0.00 0.00 13 1014.1
20260508193029 33 308 4.8 16.1 0.00 0.00 0.00 14 1014.3
20260508192525 33 64 3.2 20.9 0.00 0.00 0.00 13 1014.4
20260508192021 33 270 6.4 16.1 0.00 0.00 0.00 14 1014.4
20260508191517 33 354 8.0 17.7 0.00 0.00 0.00 14 1014.5
20260508191013 34 292 8.0 17.7 0.00 0.00 0.00 13 1014.5
20260508190528 33 295 6.4 17.7 0.00 0.00 0.00 14 1014.6
20260508190036 32 275 6.4 14.5 0.00 0.00 0.00 14 1014.8
20260508185521 33 301 6.4 9.7 0.00 0.00 0.00 14 1014.8
20260508185017 32 283 1.6 8.0 0.00 0.00 0.00 15 1014.9
20260508184513 32 52 3.2 9.7 0.00 0.00 0.00 15 1014.9
20260508184029 32 327 1.6 9.7 0.00 0.00 0.00 16 1015.1
20260508183524 31 293 3.2 12.9 0.00 0.00 0.00 16 1015.0
20260508183019 31 325 4.8 12.9 0.00 0.00 0.00 16 1015.1
20260508182515 31 318 3.2 9.7 0.00 0.00 0.00 16 1015.1
20260508182016 31 342 3.2 9.7 0.00 0.00 0.00 16 1015.2
20260508181028 30 340 6.4 14.5 0.00 0.00 0.00 17 1015.2
20260508180524 31 359 3.2 14.5 0.00 0.00 0.00 17 1015.4
20260508180032 30 20 6.4 11.3 0.00 0.00 0.00 16 1015.4
20260508175513 30 312 3.2 12.9 0.00 0.00 0.00 17 1015.6
20260508175029 30 321 4.8 12.9 0.00 0.00 0.00 17 1015.7
20260508174530 30 235 3.2 8.0 0.00 0.00 0.00 17 1015.7
20260508174026 31 308 1.6 8.0 0.00 0.00 0.00 17 1015.8
20260508173522 30 21 3.2 8.0 0.00 0.00 0.00 18 1015.8
20260508173018 30 326 1.6 11.3 0.00 0.00 0.00 19 1015.8
20260508172513 29 24 4.8 11.3 0.00 0.00 0.00 18 1015.9
20260508172029 29 68 1.6 6.4 0.00 0.00 0.00 19 1015.9
20260508171525 28 213 1.6 4.8 0.00 0.00 0.00 20 1016.0
20260508171025 28 216 1.6 6.4 0.00 0.00 0.00 21 1016.1
20260508170521 28 218 3.2 6.4 0.00 0.00 0.00 21 1016.2
20260508170029 27 214 3.2 6.4 0.00 0.00 0.00 21 1016.2
20260508165530 28 59 1.6 4.8 0.00 0.00 0.00 21 1016.2
20260508165026 26 73 3.2 6.4 0.00 0.00 0.00 23 1016.2
20260508164521 26 75 3.2 8.0 0.00 0.00 0.00 23 1016.2
20260508164017 26 77 3.2 8.0 0.00 0.00 0.00 23 1016.3
20260508163517 25 96 3.2 6.4 0.00 0.00 0.00 24 1016.3
20260508163013 25 105 3.2 8.0 0.00 0.00 0.00 24 1016.3
20260508162528 25 119 3.2 8.0 0.00 0.00 0.00 26 1016.3
20260508162024 25 119 4.8 11.3 0.00 0.00 0.00 27 1016.4
20260508161520 25 79 6.4 11.3 0.00 0.00 0.00 26 1016.4
20260508161016 24 96 3.2 11.3 0.00 0.00 0.00 27 1016.5
20260508160512 24 70 4.8 8.0 0.00 0.00 0.00 27 1016.5
20260508160039 23 97 4.8 6.4 0.00 0.00 0.00 28 1016.5
20260508155524 23 102 3.2 6.4 0.00 0.00 0.00 29 1016.5
20260508155020 23 106 3.2 6.4 0.00 0.00 0.00 29 1016.6
20260508154516 23 104 1.6 6.4 0.00 0.00 0.00 29 1016.6
20260508154012 23 104 3.2 4.8 0.00 0.00 0.00 30 1016.6
20260508153528 22 105 3.2 8.0 0.00 0.00 0.00 30 1016.6
20260508153023 21 106 3.2 9.7 0.00 0.00 0.00 31 1016.7
20260508152519 21 95 3.2 8.0 0.00 0.00 0.00 32 1016.8
20260508152019 21 81 4.8 9.7 0.00 0.00 0.00 32 1016.7
20260508151515 20 90 3.2 8.0 0.00 0.00 0.00 33 1016.7
20260508151031 20 110 3.2 8.0 0.00 0.00 0.00 34 1016.8
20260508150526 20 98 3.2 8.0 0.00 0.00 0.00 34 1016.8
20260508150035 20 68 3.2 9.7 0.00 0.00 0.00 35 1016.7
20260508145515 20 65 3.2 9.7 0.00 0.00 0.00 35 1016.7
20260508145031 20 61 3.2 4.8 0.00 0.00 0.00 36 1016.8
20260508144531 20 61 3.2 11.3 0.00 0.00 0.00 36 1016.8
20260508144027 20 58 3.2 11.3 0.00 0.00 0.00 36 1016.7
20260508143523 20 71 3.2 9.7 0.00 0.00 0.00 36 1016.6
20260508143019 19 71 3.2 9.7 0.00 0.00 0.00 37 1016.5
20260508142514 19 121 3.2 6.4 0.00 0.00 0.00 38 1016.5
20260508142030 18 122 3.2 6.4 0.00 0.00 0.00 38 1016.5
20260508141526 18 121 3.2 8.0 0.00 0.00 0.00 38 1016.4
20260508141026 18 122 4.8 8.0 0.00 0.00 0.00 39 1016.4
20260508140521 18 115 3.2 6.4 0.00 0.00 0.00 39 1016.3
20260508140028 18 112 3.2 6.4 0.00 0.00 0.00 39 1016.3
20260508135529 17 113 4.8 6.4 0.00 0.00 0.00 40 1016.3
20260508135026 17 316 3.2 8.0 0.00 0.00 0.00 40 1016.3
20260508134522 17 134 3.2 4.8 0.00 0.00 0.00 40 1016.2
20260508134018 17 135 3.2 6.4 0.00 0.00 0.00 41 1016.3
20260508133519 17 135 3.2 6.4 0.00 0.00 0.00 42 1016.2
20260508133014 16 135 3.2 6.4 0.00 0.00 0.00 42 1016.2
20260508132529 17 159 3.2 6.4 0.00 0.00 0.00 42 1016.2
20260508132026 16 189 1.6 4.8 0.00 0.00 0.00 42 1016.0
20260508131522 16 189 1.6 4.8 0.00 0.00 0.00 43 1016.0
20260508131017 16 190 0.0 3.2 0.00 0.00 0.00 43 1016.0
20260508130512 16 190 0.0 4.8 0.00 0.00 0.00 44 1015.9
20260508130039 15 190 1.6 4.8 0.00 0.00 0.00 44 1015.8
20260508125524 15 189 0.0 0.0 0.00 0.00 0.00 45 1015.7
20260508125019 15 189 0.0 0.0 0.00 0.00 0.00 46 1015.8
20260508124515 15 189 0.0 1.6 0.00 0.00 0.00 47 1015.6
20260508124031 14 189 0.0 3.2 0.00 0.00 0.00 47 1015.6
20260508123527 16 189 1.6 3.2 0.00 0.00 0.00 43 1015.6